Home   Weather   Wallisellen   Past weeks

Flag for Switzerland Past Weather in Wallisellen, Zurich, Switzerland — Yesterday and Last 2 Weeks

Now
48 °F

Cool.


Feels Like: 46 °F
Forecast: 31 / 65 °F
Wind: 5 mph from East

Location: Zuerich-Fluntern

Current Time: Apr 23, 2017 at 10:09:27 pm

Latest Report: Apr 23, 2017 at 9:00 pm


Visibility: N/A

Pressure: 30.17 "Hg

Humidity: 49%

Dew Point: 30 °F

Location of WallisellenLocation

Past Weather in Wallisellen — Graph

°F

Wallisellen Temperature Yesterday

Maximum temperature yesterday: 57 °F (at 2:00 pm)
Minimum temperature yesterday: 37 °F (at 6:00 am)
Average temperature yesterday: 48 °F

High & Low Weather Summary for the Past Weeks

 TemperatureHumidityPressure
High73 °F (Apr 9, 5:00 pm)96% (Apr 19, 2:00 pm)30.57 "Hg (Apr 19, 2:00 pm)
Low28 °F (Apr 20, 6:00 am)26% (Apr 9, 5:00 pm)29.93 "Hg (Apr 13, 6:00 pm)
Average48 °F62%30.21 "Hg
* Reported Apr 8 8:00 pm — Apr 23 8:00 pm, Wallisellen, Weather by CustomWeather, © 2017

Note: Actual official high and low records may vary slightly from our data, if they occured in-between our weather recording intervals... More about our weather records

Advertising

Wallisellen Weather History for the Previous 24 Hours

Scroll right to see more
 ConditionsComfort  
Time TempWeatherWind HumidityBarometerVisibility
8:00 pm
Sun, Apr 23
51 °FPassing clouds.3 mph42%30.15 "HgN/A
7:00 pm55 °FCool.2 mph38%30.14 "HgN/A
6:00 pm56 °FRefreshingly cool.6 mph37%30.14 "HgN/A
5:00 pm55 °FCool.5 mph41%30.14 "HgN/A
4:00 pm54 °FCool.5 mph39%30.16 "HgN/A
3:00 pm54 °FCool.5 mph43%30.18 "HgN/A
2:00 pm51 °FScattered clouds.6 mph45%30.21 "HgN/A
1:00 pm48 °FCool.3 mph52%30.23 "HgN/A
12:00 pm47 °FCool.2 mph52%30.24 "HgN/A
11:00 am45 °FCool.3 mph58%30.25 "HgN/A
10:00 am46 °FCool.6 mph56%30.25 "HgN/A
9:00 am43 °FQuite cool.5 mph64%30.26 "HgN/A
8:00 am42 °FQuite cool.2 mph71%30.26 "HgN/A
7:00 am42 °FQuite cool.1 mph66%30.25 "HgN/A
6:00 am41 °FQuite cool.1 mph64%30.24 "HgN/A
5:00 am42 °FQuite cool.1 mph67%30.24 "HgN/A
4:00 am42 °FQuite cool.5 mph66%30.24 "HgN/A
3:00 am43 °FQuite cool.8 mph74%30.24 "HgN/A
2:00 am44 °FQuite cool.12 mph74%30.24 "HgN/A
1:00 am48 °FCool.6 mph68%30.22 "HgN/A
12:00 am48 °FCool.3 mph65%30.22 "HgN/A
11:00 pm
Sat, Apr 22
49 °FCool.2 mph60%30.22 "HgN/A
10:00 pm49 °FCool.3 mph63%30.21 "HgN/A
Weather by CustomWeather, © 2017

See weather overviewHow to use our weather pages